[[{"header":{"parameterUnit":"m.s-1","parameterCategory":1,"la1":30.2991,"la2":30.254,"lo1":-89.0895,"lo2":-89.0444,"dy":0.0017,"dx":0.0017,"nx":28,"ny":28,"refTime":"2025-02-04T09:00:00:Z","depth":0,"parameterNumber":2,"parameterNumberName":"U-component_of_WINDS"},"data":[0,0,0,0,0,0,0,0,0,0,0,0,0,0,0,0,0,0,0,0,0,0,0,0,0,0,0,0,0,0,0,0,0,0,0,0,0,0,0,0,0,0,0,0,0,0,0,0,0,0,0,0,0,0,0,0,0,0,-0.3917,-0.3917,0,-0.3921,-0.3922,-0.3922,-0.393,-0.393,-0.393,-0.393,-0.3935,-0.3935,-0.3935,0,0,0,0,0,0,0,0,0,0,0,0,0,-0.3914,-0.3914,-0.3917,-0.3917,-0.3917,-0.3921,-0.3922,-0.3922,-0.393,-0.393,-0.393,-0.393,-0.3935,-0.3935,-0.3935,0,0,0,0,0,0,0,0,0,0,0,0,0,-0.3917,-0.3914,-0.3917,-0.3921,-0.3922,-0.3921,-0.3922,-0.3922,-0.393,-0.393,-0.393,-0.393,-0.3935,-0.3935,-0.3935,-0.393,0,0,-0.3935,-0.3935,0,0,0,0,0,0,0,0,-0.3916,-0.3917,-0.392,-0.3921,-0.3921,-0.3925,-0.3922,-0.3925,-0.3929,-0.3927,-0.393,-0.393,-0.3931,-0.3932,-0.3932,-0.3931,-0.3931,-0.3935,-0.3935,-0.3935,-0.3935,0,0,0,0,0,0,0,-0.3916,-0.3916,-0.3918,-0.3921,-0.3921,-0.3923,-0.3924,-0.3923,-0.3928,-0.3927,-0.3927,-0.3928,-0.3932,-0.3932,-0.3932,-0.3931,-0.3935,-0.3935,-0.3935,-0.3935,-0.3925,-0.3925,0,0,0,0,0,0,-0.3915,-0.3916,-0.3918,-0.3919,-0.3919,-0.3923,-0.3924,-0.3924,-0.3928,-0.3929,-0.3928,-0.3928,-0.3932,-0.3932,-0.3933,-0.3927,-0.3935,-0.3935,-0.3935,-0.3926,-0.3925,-0.3925,0,0,0,0,0,0,-0.3915,-0.3915,-0.3918,-0.3918,-0.3918,-0.3923,-0.3923,-0.3924,-0.3924,-0.3928,-0.3929,-0.3927,-0.3932,-0.3933,-0.3931,-0.3927,-0.3935,-0.3935,-0.3926,-0.3926,-0.3925,-0.3917,0,0,0,0,0,0,-0.3915,-0.3915,-0.3914,-0.3918,-0.3918,-0.3916,-0.3923,-0.3924,-0.3924,-0.3925,-0.3928,-0.3929,-0.3932,-0.3931,-0.3931,-0.3928,-0.3935,-0.3926,-0.3926,-0.3925,-0.3917,-0.3916,-0.3915,0,0,0,0,0,-0.3915,-0.3911,-0.3914,-0.3914,-0.3916,-0.3916,-0.3916,-0.3921,-0.3924,-0.3922,-0.3925,-0.3929,-0.3928,-0.3931,-0.3931,-0.3927,-0.3927,-0.3926,-0.3925,-0.3918,-0.3916,-0.3915,0,0,0,0,0,0,-0.3907,-0.3912,-0.3915,-0.3912,-0.3913,-0.3917,-0.3916,-0.3919,-0.392,-0.392,-0.3926,-0.3926,-0.3924,-0.3925,-0.3928,-0.3923,-0.3928,-0.3927,-0.3922,-0.3921,-0.3919,-0.3919,-0.3935,0,0,0,0,0,-0.3905,-0.3904,-0.3909,-0.3906,-0.3907,-0.3911,-0.3911,-0.3914,-0.3916,-0.3917,-0.3919,-0.3921,-0.3921,-0.3921,-0.3921,-0.3918,-0.3918,-0.3915,-0.3914,-0.3913,-0.3913,-0.391,-0.3909,-0.3923,-0.3923,-0.3923,0,0,-0.3901,-0.3903,-0.3903,-0.3904,-0.3906,-0.3905,-0.3911,-0.3911,-0.391,-0.3917,-0.3915,-0.3917,-0.3919,-0.3916,-0.3915,-0.3918,-0.3909,-0.3913,-0.3912,-0.3912,-0.391,-0.3908,-0.3907,-0.3923,-0.3923,-0.3923,0,0,-0.3892,-0.3894,-0.3892,-0.3893,-0.3896,-0.3899,-0.3898,-0.3902,-0.3903,-0.3901,-0.3906,-0.3906,-0.3906,-0.3907,-0.3908,-0.39,-0.3903,-0.39,-0.3894,-0.3891,-0.389,-0.3889,-0.3886,-0.3885,-0.3899,-0.3899,-0.3899,0,-0.3887,-0.3886,-0.389,-0.3889,-0.389,-0.3895,-0.3893,-0.3894,-0.3897,-0.3897,-0.39,-0.39,-0.3901,-0.3899,-0.3897,-0.3897,-0.3896,-0.3899,-0.389,-0.3889,-0.3888,-0.3885,-0.3884,-0.3899,-0.3899,-0.3899,-0.3899,0,-0.3878,-0.3878,-0.3876,-0.3878,-0.3878,-0.3876,-0.388,-0.388,-0.3883,-0.3885,-0.3884,-0.3886,-0.3887,-0.3886,-0.389,-0.3884,-0.3886,-0.3889,-0.3894,-0.3886,-0.3883,-0.3882,-0.3898,-0.3898,-0.3898,-0.3898,0,0,-0.3865,-0.387,-0.3869,-0.3869,-0.3872,-0.3872,-0.387,-0.3871,-0.387,-0.3872,-0.387,-0.387,-0.3873,-0.3874,-0.3877,-0.3875,-0.3868,-0.3879,-0.3879,-0.3877,-0.3862,-0.3859,-0.3857,-0.3871,-0.3871,-0.387,-0.3862,0,-0.3857,-0.3854,-0.3858,-0.3855,-0.3854,-0.386,-0.3858,-0.386,-0.3862,-0.3861,-0.3864,-0.3864,-0.3868,-0.3869,-0.3867,-0.3869,-0.3865,-0.387,-0.3869,-0.3869,-0.3868,-0.3856,-0.3853,-0.3845,-0.3861,-0.386,-0.386,0,-0.3848,-0.3848,-0.3844,-0.3847,-0.3847,-0.3846,-0.3846,-0.3846,-0.3848,-0.385,-0.385,-0.3854,-0.3852,-0.3857,-0.3855,-0.3858,-0.3858,-0.3859,-0.3859,-0.3859,-0.3864,-0.3855,-0.3842,-0.3841,-0.3859,-0.3859,-0.3859,0,-0.3838,-0.3838,-0.3835,-0.3836,-0.3839,-0.3838,-0.3839,-0.3841,-0.3841,-0.3842,-0.3842,-0.3843,-0.3843,-0.3843,-0.3847,-0.385,-0.3844,-0.3849,-0.3845,-0.3845,-0.3843,-0.3843,-0.3829,-0.3844,-0.3844,-0.3844,-0.3844,0,-0.3828,-0.3825,-0.3831,-0.3829,-0.3826,-0.3831,-0.3828,-0.383,-0.3832,-0.383,-0.3835,-0.3834,-0.3839,-0.3839,-0.3842,-0.3839,-0.3839,-0.384,-0.3841,-0.384,-0.3839,-0.3839,-0.384,-0.3843,-0.3843,-0.3844,-0.3844,0,-0.3817,-0.382,-0.3818,-0.3821,-0.3822,-0.3819,-0.3822,-0.3821,-0.3823,-0.3822,-0.3822,-0.3826,-0.3825,-0.3829,-0.3829,-0.3831,-0.3827,-0.3829,-0.3826,-0.3827,-0.3822,-0.3822,-0.3807,-0.3805,-0.3821,-0.3821,-0.3821,0,-0.381,-0.3808,-0.3811,-0.3811,-0.3812,-0.3811,-0.3811,-0.3815,-0.3815,-0.3817,-0.3815,-0.3815,-0.3815,-0.3814,-0.3816,-0.3816,-0.3818,-0.3813,-0.3818,-0.3817,-0.3818,-0.3817,-0.3817,-0.3812,-0.3812,-0.3811,-0.3811,0,-0.3798,-0.38,-0.38,-0.38,-0.38,-0.38,-0.3801,-0.38,-0.3805,-0.3804,-0.3804,-0.3804,-0.3804,-0.3803,-0.3804,-0.3805,-0.3809,-0.381,-0.3809,-0.3807,-0.3805,-0.3806,-0.3823,-0.381,-0.381,-0.381,-0.381,-0.381,-0.3789,-0.3787,-0.3788,-0.3788,-0.3789,-0.3789,-0.3788,-0.379,-0.379,-0.379,-0.3793,-0.3792,-0.3793,-0.3794,-0.3795,-0.3794,-0.3797,-0.3795,-0.3795,-0.3794,-0.3793,-0.3806,-0.3794,-0.3795,-0.3795,-0.3795,-0.3795,0,-0.3776,-0.3778,-0.3777,-0.3778,-0.3777,-0.3781,-0.3782,-0.3781,-0.378,-0.3781,-0.3781,-0.378,-0.378,-0.3782,-0.3782,-0.3781,-0.3782,-0.3781,-0.378,-0.3781,-0.3791,-0.3792,-0.3779,-0.3779,-0.3779,-0.3779,-0.3779,-0.3779,-0.377,-0.3767,-0.3769,-0.3767,-0.3768,-0.3767,-0.3767,-0.3767,-0.3768,-0.3767,-0.3766,-0.3768,-0.377,-0.377,-0.3769,-0.377,-0.377,-0.3767,-0.3769,-0.3778,-0.378,-0.3781,-0.3782,-0.3767,-0.3767,-0.3758,-0.3758,-0.3758]},{"header":{"parameterUnit":"m.s-1","parameterCategory":1,"la1":30.2991,"la2":30.254,"lo1":-89.0895,"lo2":-89.0444,"dy":0.0017,"dx":0.0017,"nx":28,"ny":28,"refTime":"2025-02-04T09:00:00:Z","depth":0,"parameterNumber":3,"parameterNumberName":"V-component_of_WINDS"},"data":[0,0,0,0,0,0,0,0,0,0,0,0,0,0,0,0,0,0,0,0,0,0,0,0,0,0,0,0,0,0,0,0,0,0,0,0,0,0,0,0,0,0,0,0,0,0,0,0,0,0,0,0,0,0,0,0,0,0,2.6949,2.6949,0,2.7009,2.701,2.701,2.6996,2.6995,2.6994,2.6993,2.7051,2.7053,2.7056,0,0,0,0,0,0,0,0,0,0,0,0,0,2.6818,2.682,2.6949,2.695,2.695,2.7009,2.701,2.701,2.6996,2.6995,2.6994,2.6992,2.705,2.7053,2.7056,0,0,0,0,0,0,0,0,0,0,0,0,0,2.6876,2.6821,2.6949,2.695,2.6951,2.7009,2.701,2.7011,2.6997,2.6995,2.6993,2.6992,2.7049,2.7053,2.7057,2.7115,0,0,2.7069,2.707,0,0,0,0,0,0,0,0,2.6873,2.6881,2.6949,2.695,2.6951,2.6993,2.6985,2.7045,2.6997,2.6979,2.6993,2.6991,2.7033,2.7038,2.7053,2.7118,2.712,2.7069,2.7071,2.7073,2.7074,0,0,0,0,0,0,0,2.6869,2.6878,2.6972,2.695,2.6952,2.6947,2.6953,2.6996,2.7015,2.6981,2.698,2.6987,2.7033,2.7049,2.7054,2.7121,2.7069,2.7072,2.7075,2.7076,2.7236,2.7238,0,0,0,0,0,0,2.6864,2.6875,2.6971,2.6974,2.6907,2.6951,2.6958,2.6982,2.7014,2.7018,2.6989,2.6987,2.7043,2.705,2.7056,2.7127,2.7073,2.7077,2.7079,2.7234,2.7236,2.7238,0,0,0,0,0,0,2.6862,2.6873,2.6968,2.6924,2.6936,2.6955,2.6982,2.6984,2.7,2.7021,2.7023,2.7002,2.7042,2.7051,2.7101,2.7129,2.7078,2.7082,2.7232,2.7235,2.7237,2.7269,0,0,0,0,0,0,2.6858,2.6872,2.6896,2.6925,2.6939,2.7013,2.6983,2.6986,2.7007,2.7005,2.7034,2.7037,2.7042,2.7095,2.7104,2.7133,2.7085,2.7229,2.7233,2.7236,2.7265,2.7272,2.7278,0,0,0,0,0,2.6853,2.6901,2.6897,2.6908,2.6968,2.7015,2.7022,2.7028,2.7009,2.7033,2.7046,2.7036,2.7124,2.71,2.7111,2.7141,2.7228,2.7232,2.7236,2.7262,2.7271,2.7278,0,0,0,0,0,0,2.6874,2.6905,2.6901,2.696,2.6985,2.7012,2.7042,2.7036,2.7066,2.7063,2.7067,2.7073,2.7125,2.7137,2.7111,2.7199,2.7173,2.7179,2.7189,2.7197,2.7204,2.72,2.7088,0,0,0,0,0,2.6885,2.6921,2.6946,2.6996,2.7009,2.7023,2.7043,2.7045,2.7071,2.7081,2.7098,2.7122,2.7155,2.7176,2.7208,2.7266,2.7272,2.7292,2.7299,2.7304,2.731,2.7342,2.7351,2.7252,2.7252,2.7252,0,0,2.6909,2.6931,2.6953,2.7001,2.702,2.7057,2.7032,2.7071,2.7098,2.7087,2.7136,2.7148,2.7175,2.723,2.7255,2.7242,2.7339,2.7309,2.7314,2.7317,2.7347,2.7357,2.7365,2.7255,2.7255,2.7254,0,0,2.6972,2.6992,2.7036,2.7056,2.7086,2.7095,2.7105,2.7134,2.7142,2.7191,2.7183,2.7214,2.7271,2.7291,2.7308,2.7377,2.7369,2.7386,2.7421,2.7452,2.746,2.7467,2.7492,2.7501,2.7392,2.7392,2.7392,0,2.6998,2.7054,2.7058,2.7099,2.712,2.7112,2.7156,2.7174,2.7213,2.7227,2.7212,2.7283,2.7301,2.736,2.7377,2.7391,2.7402,2.7384,2.7459,2.7466,2.7472,2.7496,2.7506,2.7394,2.7394,2.7394,2.7394,0,2.7084,2.7122,2.7154,2.7193,2.7217,2.7259,2.7269,2.7292,2.7292,2.7302,2.7351,2.7372,2.7407,2.7421,2.742,2.748,2.7472,2.7458,2.7432,2.7484,2.7506,2.7516,2.7397,2.7396,2.7396,2.7395,0,0,2.7163,2.7204,2.7215,2.7233,2.7265,2.7294,2.7335,2.7371,2.7391,2.7417,2.7451,2.7499,2.7486,2.7506,2.7507,2.7534,2.7588,2.7517,2.7517,2.753,2.7655,2.7667,2.7677,2.7582,2.7584,2.7585,2.7653,0,2.7229,2.7304,2.7309,2.7375,2.741,2.7402,2.7437,2.746,2.747,2.7501,2.7511,2.7545,2.7526,2.7537,2.7564,2.7576,2.7613,2.757,2.7614,2.7615,2.7609,2.7689,2.7701,2.7765,2.7662,2.7664,2.7665,0,2.7318,2.7348,2.7418,2.7445,2.746,2.7492,2.7525,2.7555,2.758,2.7585,2.7607,2.7604,2.7644,2.7616,2.7671,2.7642,2.766,2.7668,2.767,2.7676,2.7644,2.7698,2.7785,2.7795,2.7679,2.7677,2.7676,0,2.737,2.7427,2.7477,2.7492,2.7525,2.7547,2.7561,2.7585,2.7606,2.7634,2.7648,2.7679,2.7697,2.7721,2.7726,2.7705,2.7782,2.7754,2.7787,2.7787,2.7806,2.7805,2.7898,2.7814,2.7814,2.7814,2.7814,0,2.7445,2.7488,2.7501,2.7532,2.758,2.7584,2.7631,2.7644,2.7664,2.7696,2.769,2.772,2.7724,2.7755,2.7758,2.7804,2.7812,2.7817,2.7818,2.7818,2.7818,2.7831,2.7827,2.7816,2.7816,2.7815,2.7815,0,2.7512,2.7522,2.7576,2.7602,2.761,2.7644,2.7666,2.7695,2.7703,2.7744,2.7753,2.7767,2.7802,2.7809,2.7851,2.7853,2.7908,2.7904,2.7901,2.7901,2.7934,2.7932,2.8041,2.8056,2.7961,2.7962,2.7962,0,2.756,2.7593,2.7623,2.7645,2.7661,2.7696,2.7717,2.7722,2.7744,2.7775,2.78,2.7835,2.7863,2.792,2.7933,2.7964,2.7961,2.7997,2.7966,2.7966,2.7964,2.7962,2.7966,2.8004,2.8005,2.8006,2.8007,0,2.7644,2.7648,2.768,2.7714,2.7741,2.7767,2.7792,2.781,2.7818,2.7843,2.788,2.7902,2.7945,2.798,2.8011,2.8024,2.8017,2.8016,2.8026,2.8028,2.8025,2.8028,2.7919,2.8014,2.8013,2.8013,2.8012,2.8012,2.7705,2.7734,2.776,2.7796,2.7815,2.7839,2.7868,2.788,2.7911,2.7948,2.7947,2.7988,2.8011,2.8052,2.8067,2.8098,2.8087,2.81,2.8104,2.8108,2.8112,2.8019,2.8103,2.8103,2.8103,2.8103,2.8103,0,2.779,2.7806,2.7839,2.7875,2.7903,2.7894,2.7921,2.7945,2.7981,2.8003,2.8032,2.8074,2.8107,2.8122,2.8155,2.8176,2.8174,2.8185,2.8184,2.8187,2.812,2.8109,2.8187,2.8187,2.8186,2.8186,2.8186,2.8186,2.7838,2.7888,2.7894,2.7953,2.7968,2.8009,2.8025,2.8046,2.8064,2.8112,2.814,2.815,2.8169,2.8203,2.8233,2.8236,2.8249,2.8262,2.8264,2.8201,2.8192,2.8184,2.8174,2.8264,2.8264,2.8329,2.833,2.833]}]]